This is the latest recevied weather packets stored in our database for station/object SV9TNF-52. If no packets are shown the sender has not sent any weather packets the latest 10 day(s).
| Time | Temp. | Humidity | Pressure | Rain* | Wind** | Luminosity | Snow |
|---|---|---|---|---|---|---|---|
| 1788599559 | 30° C | 51% | 1022.4 hPa | 0 mm | 8.05 m/s, 321° | - | - |
| 1788599259 | 30° C | 52% | 1022.4 hPa | 0 mm | 7.15 m/s, 197° | - | - |
| 1788598958 | 30° C | 47% | 1022.4 hPa | 0 mm | 7.15 m/s, 27° | - | - |
| 1788598659 | 29.44° C | 50% | 1022.4 hPa | 0 mm | 5.81 m/s, 117° | - | - |
| 1788598358 | 29.44° C | 51% | 1022.4 hPa | 0 mm | 16.99 m/s, 101° | - | - |
| 1788598076 | 29.44° C | 51% | 1022.4 hPa | 0 mm | 6.71 m/s, 237° | - | - |
| 1788597758 | 29.44° C | 51% | 1022.4 hPa | 0 mm | 7.6 m/s, 69° | - | - |
| 1788597458 | 29.44° C | 52% | 1022.4 hPa | 0 mm | 8.94 m/s, 354° | - | - |
| 1788597158 | 28.89° C | 49% | 1022.4 hPa | 0 mm | 12.96 m/s, 359° | - | - |
| 1788596858 | 28.89° C | 51% | 1022.4 hPa | 0 mm | 15.2 m/s, 21° | - | - |
| 1788596558 | 29.44° C | 53% | 1022.4 hPa | 0 mm | 11.62 m/s, 63° | - | - |
| 1788596258 | 29.44° C | 54% | 1022.4 hPa | 0 mm | 12.96 m/s, 181° | - | - |
| 1788595958 | 28.89° C | 51% | 1022.4 hPa | 0 mm | 11.18 m/s, 357° | - | - |
| 1788595657 | 29.44° C | 53% | 1022.4 hPa | 0 mm | 11.18 m/s, 90° | - | - |
| 1788595357 | 28.89° C | 53% | 1022.4 hPa | 0 mm | 16.09 m/s, 316° | - | - |
| 1788595057 | 28.89° C | 53% | 1022 hPa | 0 mm | 9.83 m/s, 343° | - | - |
| 1788594757 | 28.89° C | 54% | 1022 hPa | 0 mm | 14.31 m/s, 24° | - | - |
| 1788594457 | 28.89° C | 53% | 1022 hPa | 0 mm | 14.75 m/s, 45° | - | - |
| 1788594157 | 28.89° C | 53% | 1022 hPa | 0 mm | 13.41 m/s, 64° | - | - |
| 1788593857 | 28.33° C | 49% | 1022 hPa | 0 mm | 4.92 m/s, 353° | - | - |
| 1788593557 | 28.33° C | 56% | 1022 hPa | 0 mm | 14.75 m/s, 31° | - | - |
| 1788593257 | 28.33° C | 54% | 1022 hPa | 0 mm | 15.65 m/s, 355° | - | - |
| 1788592957 | 28.33° C | 53% | 1021.7 hPa | 0 mm | 8.49 m/s, 284° | - | - |
| 1788592657 | 28.33° C | 53% | 1021.7 hPa | 0 mm | 15.2 m/s, 320° | - | - |
| 1788592356 | 28.33° C | 55% | 1021.7 hPa | 0 mm | 12.96 m/s, 354° | - | - |
* Rain latest hour (hover to see other rain measurements)
** Current wind speed in m/s (hover to see current wind gust speed)